Preview of NWS' New Version of Forecast
This preview is not operational and should not be used for support decisions.

Regional Weather Roundup (RWR)

Issued by National Weather Service (NWS)

                            
000
ASUS45 KABQ 201901
RWRNM 
NEW MEXICO REGIONAL WEATHER ROUNDUP
NATIONAL WEATHER SERVICE ALBUQUERQUE NM
100 PM MDT THU JUN 20 2019

NOTE: "FAIR" MEANS FEW OR NO CLOUDS BELOW 12,000 FEET AGL WITH NO
       SIGNIFICANT WEATHER OR OBSTRUCTIONS TO VISION.

      THIS PRODUCT IS RELEASED AS TWO VERSIONS.  ONE VERSION NEAR
      THE TOP OF THE HOUR CONTAINING PRELIMINARY DATA FROM ALBUQUERQUE
      AND OTHER STATIONS.  A FINAL VERSION WITH ADDITIONAL DATA IS 
      ISSUED ABOUT 10 MINUTES AFTER THE HOUR.
 
NMZ501-503-504-510>518-202000-
NORTHWEST PLATEAU/NORTHCENTRAL MOUNTAINS
  
CITY           SKY/WX    TMP DP  RH WIND       PRES   REMARKS
FARMINGTON     FAIR      86  31  13 VRB7      29.96F                  
LOS ALAMOS       N/A     78  24  13 SW14G21   30.13S                  
SANTA FE       FAIR      87  26  11 SW12G24   30.05F                  
TAOS           FAIR      81  32  17 SW15G29   30.10F                  
ANGEL FIRE       N/A     70  33  25 W13G28    30.19F                  

$$
NMZ402-403-502-505>509-202000-
WESTCENTRAL MOUNTAINS/SOUTHWEST MOUNTAINS
  
CITY           SKY/WX    TMP DP  RH WIND       PRES   REMARKS
GALLUP         FAIR      82  23  11 W17G25    30.10F                  
GRANTS         FAIR      82  23  11 W14       30.11F                  
SILVER CITY    FAIR      86  18   8 W12G26    30.09F                  

$$
NMZ407-409-411-412-202000-
SOUTHERN DESERTS
  
CITY           SKY/WX    TMP DP  RH WIND       PRES   REMARKS
DEMING         FAIR      92  18   6 W17G29    30.01F                  
LAS CRUCES     FAIR      92  21   7 W15G22    30.02F                  
HOLLOMAN AFB   FAIR      93  28  10 W10       29.97F                  
ALAMOGORDO     FAIR      91  25   9 SW8G16    29.97F                  
T OR C         FAIR      92  12   5 SE14G22   29.99F                  

$$
NMZ519>523-202000-
CENTRAL VALLEYS/CENTRAL HIGHLANDS
  
CITY           SKY/WX    TMP DP  RH WIND       PRES   REMARKS
ALBUQUERQUE    FAIR      88  30  12 S10       30.00F                  
DOUBLE EAGLE   MOSUNNY   88  28  11 SW8G17    30.03F                  
MORIARTY ARPT  FAIR      90  25   9 W15G22    30.07F                  
CLINES CORNERS FAIR      84  25  11 W24G35    30.12F                  
BELEN          FAIR      90  25   9 SW10G25   29.99F                  
SOCORRO        FAIR      90  26  10 SE7       29.99F                  

$$
NMZ524>526-539-540-202000-
SOUTHCENTRAL MOUNTAINS
  
CITY           SKY/WX    TMP DP  RH WIND       PRES   REMARKS
RUIDOSO        FAIR      82  19   9 W12G23    30.14F                  

$$
NMZ527>531-202000-
NORTHEAST HIGHLANDS/NORTHEAST PLAINS
  
CITY           SKY/WX    TMP DP  RH WIND       PRES   REMARKS
LAS VEGAS      FAIR      84  27  12 W16G29    30.07F                  
RATON          FAIR      83  31  15 W15G22    29.96F                  
CLAYTON        FAIR      89  33  13 SW6       29.88F                  

$$
NMZ532>537-202000-
EASTCENTRAL PLAINS
  
CITY           SKY/WX    TMP DP  RH WIND       PRES   REMARKS
SANTA ROSA     FAIR      94  32  11 SW15G29   29.91F                  
TUCUMCARI      LGT RAIN 100  32   9 W23G35    29.82F                  
CANNON AFB     PTSUNNY   95  34  12 SW17G24   29.90F                  
CLOVIS AIRPORT FAIR      95  38  13 W15G23    29.89F                  

$$
NMZ028-029-538-202000-
SOUTHEAST PLAINS
  
CITY           SKY/WX    TMP DP  RH WIND       PRES   REMARKS
ROSWELL        FAIR      99  31   9 VRB6      29.85F                  
ARTESIA        FAIR      97  39  13 SE7G14    29.88F                  
CARLSBAD       FAIR     100  32   9 MISG      29.84F                  
HOBBS          SUNNY    100  25   7 SW12      29.88F                  


$$